Tracking 20232 objects as of 20-Jan-2020
HD Live streaming from Space Station
objects crossing your sky now

GORIZONT 30

Track GORIZONT 30 now!
GORIZONT 30 is classified as:


NORAD ID: 23108
Int'l Code: 1994-030A
Perigee: 35,773.4 km
Apogee: 35,807.7 km
Inclination: 14.8 °
Period: 1,435.9 minutes
Semi major axis: 42161 km
RCS: 12.5892 m2 (large)
Launch date: May 20, 1994
Source: Commonwealth of Independent States (former USSR) (CIS)
Launch site: TYURATAM MISSILE AND SPACE COMPLEX (TTMTR)
aabbcc
Your satellite tracking list
Your tracking list is empty




NASA's NSSDC Master Catalog

Two Line Element Set (TLE):
1 23108U 94030A   20020.25674594 -.00000152 +00000-0 +00000-0 0  9995
2 23108 014.8286 007.0616 0004063 304.7831 244.5104 01.00283253094012
Source of the keplerian elements: AFSPC